AirNav   Duncan Aviation - Near you to keep you flying
 
 1293 users online  

MU61 Belton Regional Medical Center Heliport
Belton, Missouri, USA

GOING TO BELTON?


FAA INFORMATION EFFECTIVE 11 AUGUST 2022

Location

FAA Identifier: MU61
Lat/Long: 38-48-59.9300N 094-30-12.8900W
38-48.998833N 094-30.214833W
38.8166472,-94.5035806
(estimated)
Elevation: 1070 ft. / 326 m (estimated)
Variation: 05E (1980)
From city: 5 miles E of BELTON, MO
Time zone: UTC -5 (UTC -6 during Standard Time)
Zip code: 64012

Heliport Operations

Heliport use: Private use, MEDICAL.
Activation date: 10/1986
Control tower: no
ARTCC: KANSAS CITY CENTER
FSS: COLUMBIA FLIGHT SERVICE STATION
Attendance: UNATNDD
Wind indicator: yes
Segmented circle: no
Lights: FOR PERIMETER LGTS CALL 816-348-1200.

Heliport Communications

WX ASOS at LXT (11 nm NE): 124.175 (816-347-9807)
WX ASOS at OJC (11 nm W): PHONE 913-780-6969
WX AWOS-3PT at LRY (14 nm SE): 119.975 (816-380-5936)
WX ASOS at IXD (18 nm W): 135.325 (913-780-6987)
WX ASOS at MKC (19 nm N): 120.75 (816-329-2843)

Nearby radio navigation aids

VOR radial/distance  VOR name  Freq  Var
ANXr219/24.2NAPOLEON VORTAC114.0007E
MCIr154/30.1KANSAS CITY VORTAC113.2505E
BUMr352/32.7BUTLER VORTAC115.9007E

 
NDB name  Hdg/Dist  Freq  Var  ID
HERBB067/11.642004EPK .--. -.-

Heliport Services

Runway Information

Helipad H1

Dimensions: 40 x 40 ft. / 12 x 12 m
Surface: concrete
Runway edge lights: PERI
Latitude: 38-48.998833N
Longitude: 094-30.214833W
Elevation: 1070.0 ft.
Traffic pattern: leftleft

Heliport Ownership and Management from official FAA records

Ownership: Privately-owned
Owner: BELTON REGIONAL MEDICAL CENTER
17065 SOUTH 71 HWY
BELTON, MO 64012
Phone 816-348-1200
Manager: DAVID ROBINSON
17065 SOUTH 71 HWY
BELTON, MO 64012
Phone 816-348-1200

Additional Remarks

FOR CD CTC KANSAS CITY APCH AT 816-329-2710.

Instrument Procedures

There are no published instrument procedures at MU61.

Some nearby airports with instrument procedures:

KLXT - Lee's Summit Municipal Airport (11 nm NE)
KOJC - Johnson County Executive Airport (11 nm W)
KLRY - Lawrence Smith Memorial Airport (14 nm SE)
3GV - East Kansas City Airport (18 nm NE)
KIXD - New Century AirCenter Airport (18 nm W)
KMKC - Charles B Wheeler Downtown Airport (19 nm N)
 
Loc | Ops | Rwys | IFR | FBO | Links
Com | Nav | Svcs | Stats | Notes
Area around MU61 (Belton Regional Medical Center Heliport)
 
Road maps at: MapQuest Bing Google
 
Aerial photo
No photo
 
Sectional chart

 
Airport distance calculator
Flying to Belton Regional Medical Center Heliport? Find the distance to fly.

From to MU61

Sunrise and sunset
Times for 16-Aug-2022
 Local
(UTC-5)
 Zulu
(UTC)
Morning civil twilight06:0511:05
Sunrise06:3411:34
Sunset20:1101:11
Evening civil twilight20:3901:39

Current date and time
Zulu (UTC)  17-Aug-2022 00:00:23
Local (UTC-5)  16-Aug-2022 19:00:23
 
METAR
KGVW 
3nm W 
162335Z AUTO 13008KT 10SM CLR 29/25 A2992 RMK A01
KOJC 
11nm W 
162353Z 07005KT 10SM BKN009 OVC014 20/19 A3005 RMK AO2 SLP167 60001 T02000189 10200 20194 53002
KLXT 
11nm NE 
162353Z AUTO 09008KT 10SM FEW008 BKN029 OVC049 19/19 A3006 RMK AO2 SLP174 60000 T01940189 10194 20189 53002
KLRY 
14nm SE 
162335Z AUTO 08005KT 10SM OVC007 20/19 A3006 RMK AO2 LTG DSNT SE
KIXD 
18nm W 
162353Z 06010KT 10SM OVC009 20/19 A3005 RMK AO2 SLP168 60000 T02000189 10206 20194 53004
KMKC 
19nm N 
162354Z 06005KT 10SM FEW016 OVC044 21/19 A3004 RMK AO2 SLP169 60001 T02110189 10211 20194 53001
TAF
KIXD 
18nm W 
162032Z 1621/1718 06006KT 3SM BR OVC004 TEMPO 1621/1622 5SM BR OVC010 FM162200 08009KT P6SM BKN018 FM170200 07006KT P6SM BKN080
KMKC 
19nm N 
161729Z 1618/1718 08007KT P6SM VCSH OVC006 TEMPO 1618/1620 5SM -SHRA BR FM162000 08011KT P6SM BKN015 FM170200 07006KT P6SM BKN080
NOTAMs
Click for the latest NOTAMs
NOTAMs are issued by the DoD/FAA and will open in a separate window not controlled by AirNav.

 

 
 

Would you like to see your business listed on this page?

 If your business provides an interesting product or service to pilots, flight crews, aircraft, or users of the Belton Regional Medical Center Heliport, you should consider listing it here.  To start the listing process, click on the button below
 
Add a business
 

Other Pages about Belton Regional Medical Center Heliport

Update a link
 
Copyright © AirNav, LLC. All rights reserved. Privacy Policy  Contact